Weather History for KLAR - March, 2012

Change the Weather History Date:

Thursday, March 1, 2012

  Actual Average Record
Temperature  
Mean Temperature 19 °F 27 °F  
Max Temperature 28 °F 39 °F 60 °F (1986)
Min Temperature 10 °F 15 °F -13 °F (2002)
Degree Days  
Heating Degree Days 46 38  
Month to date heating degree days 46 38  
Since 1 July heating degree days 6211 6214  
Cooling Degree Days 0 0  
Month to date cooling degree days 0 0  
Year to date cooling degree days 0 0  
Moisture  
Dew Point 10 °F    
Average Humidity 58    
Maximum Humidity 81    
Minimum Humidity 34    
Precipitation  
Precipitation T in 0.01 in 0.11 in (1954)
Month to date precipitation T 0.01  
Year to date precipitation 0.59 0.62  
Sea Level Pressure  
Sea Level Pressure 29.74 in    
Wind  
Wind Speed 13 mph (WNW)    
Max Wind Speed 25 mph    
Max Gust Speed 31 mph    
Visibility 9 miles    
Events Snow    
T = Trace of Precipitation, MM = Missing Value Source: NWS Daily Summary

Daily Weather History Graph

Daily Weather History Graph

Search for Another Location

Airport or City:

Trip Planner

Search our weather history database for the weather conditions in past years. The results will help you decide how hot, cold, wet, or windy it might be!

Date:

Astronomy

Mar. 01, 2012 Rise Set
Actual Time 6:36 AM MST 5:54 PM MST
Civil Twilight 6:08 AM MST 6:21 PM MST
Nautical Twilight 5:36 AM MST 6:53 PM MST
Astronomical Twilight 5:04 AM MST 7:25 PM MST
Moon 11:13 AM MST (3/1) 1:40 AM MST (3/1)
Length of Visible Light 12h 13m
Length of Day
11h 17m
First Quarter, 57% of the Moon is Illuminated
Mar 1
First Quarter
Mar 8
Full
Mar 14
Last Quarter
Mar 22
New
Mar 30
First Quarter

Hourly Weather History & Observations

Time (MST) Temp. Windchill Dew Point Humidity Pressure Visibility Wind Dir Wind Speed Gust Speed Precip Events Conditions
12:53 AM 24.8 °F 12.4 °F 19.4 °F 80% 29.72 in 10.0 mi WNW 15.0 mph - N/A   Mostly Cloudy
1:01 AM 21.2 °F 6.0 °F 19.4 °F 93% 29.72 in 3.0 mi NW 19.6 mph 25.3 mph 0.00 in Snow Light Snow
1:04 AM 21.2 °F 6.8 °F 19.4 °F 93% 29.73 in 1.8 mi NW 17.3 mph 25.3 mph 0.00 in Snow Light Snow
1:20 AM 21.2 °F 10.9 °F 17.6 °F 86% 29.72 in 3.0 mi NNW 9.2 mph - 0.00 in Snow Light Snow
1:38 AM 19.4 °F 8.6 °F 14.0 °F 80% 29.71 in 10.0 mi NNW 9.2 mph - 0.00 in   Scattered Clouds
1:53 AM 18.0 °F 7.7 °F 12.9 °F 81% 29.74 in 10.0 mi NNW 8.1 mph - 0.00 in   Clear
2:53 AM 19.0 °F 12.3 °F 10.9 °F 71% 29.73 in 10.0 mi WSW 4.6 mph - N/A   Mostly Cloudy
3:53 AM 21.0 °F 12.4 °F 10.9 °F 65% 29.72 in 10.0 mi WSW 6.9 mph - N/A   Overcast
4:53 AM 19.4 °F 2.5 °F 8.6 °F 63% 29.67 in 10.0 mi SW 23.0 mph 26.5 mph N/A   Overcast
5:53 AM 19.0 °F 2.7 °F 6.1 °F 57% 29.75 in 10.0 mi SW 20.7 mph - N/A   Mostly Cloudy
6:53 AM 17.6 °F 2.7 °F 8.6 °F 68% 29.70 in 10.0 mi SW 16.1 mph - N/A   Overcast
7:53 AM 19.0 °F 3.6 °F 9.0 °F 65% 29.78 in 10.0 mi SW 18.4 mph - N/A   Mostly Cloudy
8:53 AM 19.9 °F 4.8 °F 6.1 °F 55% 29.77 in 10.0 mi WSW 18.4 mph - N/A   Mostly Cloudy
9:53 AM 21.9 °F 9.2 °F 6.1 °F 51% 29.74 in 10.0 mi WSW 13.8 mph - N/A   Clear
10:53 AM 24.1 °F 10.1 °F 3.9 °F 42% 29.72 in 10.0 mi West 18.4 mph - N/A   Partly Cloudy
11:53 AM 26.1 °F 17.6 °F 8.1 °F 47% 29.70 in 10.0 mi North 8.1 mph - N/A   Clear
12:53 PM 26.6 °F 18.2 °F 8.6 °F 47% 29.63 in 10.0 mi NE 8.1 mph - N/A   Clear
1:53 PM 28.4 °F 19.7 °F 3.2 °F 34% 29.62 in 10.0 mi WSW 9.2 mph - N/A   Partly Cloudy
2:53 PM 28.0 °F 16.1 °F 6.1 °F 39% 29.68 in 10.0 mi West 16.1 mph - 0.00 in   Partly Cloudy
3:53 PM 26.1 °F 14.5 °F 8.1 °F 47% 29.69 in 10.0 mi WNW 13.8 mph - 0.00 in   Mostly Cloudy
4:53 PM 25.0 °F 12.2 °F 9.0 °F 51% 29.70 in 10.0 mi WNW 16.1 mph - N/A   Scattered Clouds
5:53 PM 19.9 °F 6.7 °F 15.1 °F 81% 29.78 in 4.0 mi NW 13.8 mph - 0.00 in Snow Light Snow
6:53 PM 21.9 °F 11.7 °F 12.0 °F 66% 29.78 in 10.0 mi West 9.2 mph - 0.00 in   Overcast
7:53 PM 19.9 °F 7.3 °F 10.0 °F 65% 29.79 in 10.0 mi West 12.7 mph - N/A   Overcast
8:53 PM 18.0 °F 7.7 °F 12.9 °F 81% 29.82 in 10.0 mi NNW 8.1 mph - N/A   Mostly Cloudy
9:53 PM 17.1 °F 7.6 °F 10.9 °F 77% 29.82 in 10.0 mi NW 6.9 mph - N/A   Clear
10:53 PM 14.0 °F 2.0 °F 5.0 °F 67% 29.84 in 10.0 mi West 9.2 mph - N/A   Clear
11:53 PM 10.9 °F 1.4 °F 3.0 °F 70% 29.84 in 10.0 mi WSW 5.8 mph - N/A   Clear